Location: Meins Landing
(38.1396°N, 121.9072°W)
Time: 15:14:10
(UTC+00:00)

Daily predictions for brighter satellites

Satellite Brightness Start Highest point End
(mag) Time Altitude Azimuth Time Altitude Azimuth Time Altitude Azimuth
Cosmos 2263 Rocket 2.3 12:25:27 72° ENE 12:25:31 72° ENE 12:31:07 10° SSE
Cosmos 2123 Rocket 4.0 12:20:49 10° N 12:27:56 68° S 12:33:13 10° S
Cosmos 2219 4.2 12:23:12 15° N 12:27:42 45° ENE 12:33:05 10° SE
Exosat Rocket 4.2 12:35:09 43° SSE 12:35:09 43° SSE 12:38:33 10° SSE
Cosmos 1934 Rocket 4.1 12:41:57 53° NW 12:41:57 53° NW 12:47:05 10° N
COSMOS 2455 4.1 12:44:09 26° NNW 12:44:09 26° NNW 12:47:35 10° N
H-2A R/B 4.3 12:39:11 10° NNE 12:42:49 42° E 12:43:17 40° ESE
Cosmos 1535 Rocket 4.4 12:40:42 10° S 12:47:05 88° W 12:53:28 10° N
Cosmos 2082 4.2 12:47:23 10° NNW 12:53:01 60° ENE 12:58:35 10° SE
Cosmos 2369 3.6 12:53:44 61° W 12:54:17 65° WNW 12:59:56 10° NNE
Cosmos 783 Rocket 4.4 12:54:28 20° NNW 12:58:06 89° ENE 13:03:16 10° SSE
SL-16 R/B 2.9 12:53:20 10° S 12:58:47 52° ESE 13:04:17 10° NNE
Cosmos 2227 Rocket 4.1 13:08:55 14° SSW 13:08:55 14° SSW 13:09:53 10° SSW
PAYLOAD A 4.3 13:01:39 10° N 13:06:46 46° WNW 13:06:59 46° WNW
COSMO-SKYMED 1 4.5 13:06:04 10° SE 13:09:36 29° ENE 13:13:09 10° N
Cosmos 1605 Rocket 4.0 13:04:53 10° SSW 13:11:11 62° W 13:17:29 10° N
ISS -1.6 13:12:24 18° N 13:12:24 18° N 13:13:53 10° NNE
Cosmos 1908 Rocket 3.9 13:13:42 44° NW 13:13:42 44° NW 13:17:19 10° N
Cosmos 1782 Rocket 3.6 13:09:00 10° S 13:13:23 78° E 13:17:50 10° N
NOSS 3-1 (C) 4.4 13:15:25 21° NNW 13:15:25 21° NNW 13:19:07 10° N
SKYMED 2 4.0 13:11:07 10° SSE 13:15:24 64° ENE 13:19:43 10° N
Cosmos 990 Rocket 4.4 13:17:47 38° W 13:18:15 39° WNW 13:23:09 10° N
Cosmos 2333 Rocket 2.7 13:15:20 10° S 13:20:59 63° ESE 13:26:39 10° NNE
Cosmos 1025 Rocket 4.3 13:23:14 24° SW 13:23:14 24° SW 13:25:17 10° SSW
Cosmos 1898 Rocket 3.7 13:19:00 10° S 13:24:15 75° ESE 13:29:34 10° NNE
NOSS 3-1 (A) 3.2 13:23:58 36° W 13:24:58 41° NW 13:30:01 10° NNE
Cosmos 2322 Rocket 3.2 13:21:07 10° S 13:26:33 49° ESE 13:31:59 10° NNE
SL-4 R/B 3.4 13:27:47 19° SSW 13:27:47 19° SSW 13:29:41 10° S
Cosmos 1980 Rocket 3.6 13:27:38 19° NW 13:27:38 19° NW 13:31:01 10° N
Cosmos 1937 Rocket 4.0 13:25:42 10° S 13:30:45 61° ESE 13:35:53 10° NNE
Cosmos 1844 Rocket 3.6 13:27:20 10° NNW 13:32:48 50° ENE 13:38:13 10° SE
NOAA 12 4.0 13:28:14 10° N 13:33:31 68° WNW 13:38:45 10° SSW
Cosmos 1869 3.0 13:32:42 10° SSW 13:36:09 55° W 13:39:37 10° N
CZ-2C R/B 4.1 13:33:11 10° NNW 13:34:51 16° NW 13:34:51 16° NW
IGS 5A 4.3 13:33:22 10° NNE 13:37:14 49° E 13:41:04 10° S
CZ-4 R/B 3.8 13:33:08 10° NNE 13:38:08 86° WNW 13:43:03 10° SSW
Hubble Space Telescope 3.1 13:44:29 10° SSW 13:46:19 13° SSE 13:48:09 10° SE
Cosmos 1400 Rocket 3.8 13:48:59 23° W 13:49:17 23° WNW 13:52:22 10° NNW
BREEZE-M DEB (TANK) 3.4 13:50:00 10° SSW 13:52:14 46° SE 13:56:47 10° ENE
Cosmos 1300 Rocket 4.3 13:48:46 10° SW 13:52:39 30° WNW 13:56:33 10° NNW
BREEZE-M DEB (TANK) 2.9 13:53:00 10° SW 13:55:37 59° SE 14:02:10 10° ENE
Cosmos 1461 3.7 13:52:32 10° NNW 13:56:06 43° NE 13:59:32 10° SE
Cosmos 2360 Rocket 2.3 13:50:40 10° SSW 13:56:16 80° ESE 14:01:54 10° NNE
DELTA 2 R/B (1) 3.6 13:51:49 15° WSW 13:56:28 82° SSE 14:02:03 10° ENE
Cosmos 2278 3.7 13:51:27 10° SW 13:57:00 60° WNW 14:02:35 10° NNE
GP-B 3.1 13:55:33 10° N 13:59:50 56° W 14:04:06 10° SSW
Cosmos 1484 Rocket 2.8 14:01:09 10° NNE 14:04:38 72° ESE 14:08:05 10° S
ATLAS 3B R/B 4.1 13:58:12 10° S 14:05:12 48° ESE 14:12:36 10° NE
Helios 1A Rocket 4.1 14:02:27 10° SE 14:05:27 34° ENE 14:08:26 10° N
Cosmos 1802 Rocket 4.1 14:02:17 10° S 14:08:28 88° E 14:14:49 10° N
Cosmos 2263 Rocket 3.8 14:07:14 12° W 14:08:40 14° W 14:11:18 10° SW
Cosmos 1725 Rocket 4.1 14:04:34 10° S 14:10:44 84° E 14:16:57 10° N
Cosmos 2219 4.3 14:07:05 10° NW 14:11:26 23° W 14:15:46 10° SSW
Cosmos 1346 Rocket 3.0 14:08:48 10° NNW 14:12:13 38° W 14:15:39 10° SSW
IRS-1D 4.3 14:10:32 10° N 14:14:57 30° WNW 14:19:17 10° SW
Cosmos 858 Rocket 4.4 14:10:41 10° SSW 14:15:52 73° WNW 14:21:07 10° NNE
Cosmos 2227 4.2 14:12:19 10° NNW 14:17:54 62° WSW 14:23:28 10° S
Cosmos 2173 Rocket 4.2 14:11:45 10° SSW 14:17:57 54° W 14:24:11 10° N
Cosmos 1818 3.6 14:13:35 10° SSW 14:19:00 88° WNW 14:24:28 10° NNE
Landsat 7 4.3 14:15:22 10° NNE 14:20:00 66° E 14:24:36 10° S
Cosmos 1538 Rocket 4.4 14:15:23 10° NNW 14:20:21 43° WSW 14:25:15 10° S
BREEZE-M DEB (TANK) 4.5 14:16:52 10° WSW 14:29:46 49° NW 14:33:38 10° NE
Cosmos 2058 2.9 14:26:59 10° NNW 14:30:49 54° W 14:34:39 10° S
